QPF
0.00 0.00 0.00 0.00 0.00 0.00 0.00 0.00 0.00 0.00 0.00 0.00 0.00 0.00 0.00 0.00 0.00 0.00 0.00 0.00 0.00 0.00 0.00 0.00 0.00 0.00 0.00 0.00 0.00 0.00 0.00 0.00 0.00 0.00 0.00 0.01 0.05 0.03 0.00 0.00 0.02 0.03 0.01 0.00 0.00
0.00 0.00 0.00 0.00 0.00 0.00 0.00 0.00 0.00 0.00 0.00 0.00 0.00 0.00 0.00 0.00 0.00 0.00 0.00 0.00 0.00 0.00 0.00 0.00 0.00 0.00 0.00 0.00 0.00 0.00 0.00 0.00 0.00 0.00 0.00 0.00 0.09 0.06 0.03 0.01 0.05 0.07 0.00 0.00 0.00
0.00 0.00 0.00 0.00 0.00 0.00 0.00 0.00 0.00 0.00 0.00 0.00 0.00 0.00 0.00 0.00 0.00 0.00 0.00 0.00 0.00 0.00 0.00 0.00 0.00 0.00 0.00 0.00 0.00 0.00 0.00 0.00 0.00 0.00 0.00 0.00 0.04 0.16 0.11 0.10 0.04 0.01 0.00 0.00 0.00
0.00 0.00 0.00 0.00 0.00 0.00 0.00 0.00 0.00 0.00 0.00 0.00 0.00 0.00 0.00 0.00 0.00 0.00 0.00 0.00 0.00 0.00 0.00 0.00 0.00 0.02 0.02 0.00 0.00 0.00 0.00 0.00 0.00 0.02 0.00 0.00 0.10 0.21 0.18 0.10 0.02 0.00 0.02 0.01 0.01
0.00 0.00 0.00 0.00 0.00 0.00 0.00 0.00 0.00 0.00 0.00 0.00 0.00 0.00 0.00 0.00 0.00 0.00 0.00 0.00 0.00 0.00 0.00 0.00 0.00 0.01 0.04 0.00 0.00 0.00 0.00 0.00 0.00 0.01 0.00 0.00 0.09 0.44 0.30 0.06 0.01 0.00 0.00 0.03 0.03
0.00 0.00 0.00 0.00 0.00 0.00 0.00 0.00 0.00 0.00 0.00 0.00 0.00 0.00 0.00 0.00 0.00 0.00 0.00 0.00 0.00 0.00 0.00 0.00 0.00 0.01 0.01 0.00 0.00 0.00 0.00 0.00 0.00 0.00 0.00 0.00 0.01 0.54 0.57 0.29 0.02 0.00 0.00 0.02 0.05
0.00 0.00 0.00 0.00 0.00 0.00 0.00 0.00 0.00 0.00 0.00 0.00 0.00 0.00 0.00 0.00 0.00 0.00 0.00 0.00 0.00 0.00 0.00 0.00 0.00 0.01 0.01 0.00 0.00 0.00 0.00 0.00 0.00 0.00 0.00 0.00 0.01 0.16 0.44 0.44 0.07 0.03 0.01 0.02 0.04
0.00 0.00 0.00 0.00 0.00 0.00 0.00 0.00 0.00 0.00 0.00 0.00 0.00 0.00 0.00 0.00 0.00 0.00 0.00 0.00 0.00 0.00 0.00 0.00 0.00 0.00 0.00 0.00 0.00 0.00 0.00 0.00 0.00 0.00 0.00 0.01 0.00 0.02 0.11 0.19 0.14 0.05 0.03 0.02 0.04
0.00 0.00 0.00 0.00 0.00 0.00 0.00 0.00 0.00 0.00 0.00 0.00 0.00 0.00 0.00 0.00 0.00 0.00 0.00 0.00 0.00 0.00 0.00 0.00 0.00 0.00 0.00 0.03 0.06 0.00 0.03 0.00 0.00 0.00 0.00 0.01 0.01 0.09 0.17 0.04 0.02 0.05 0.09 0.04 0.07
0.00 0.00 0.00 0.00 0.00 0.00 0.00 0.00 0.00 0.00 0.00 0.00 0.00 0.00 0.00 0.00 0.00 0.00 0.00 0.00 0.00 0.00 0.00 0.00 0.00 0.00 0.00 0.01 0.02 0.00 0.00 0.00 0.00 0.00 0.00 0.00 0.00 0.03 0.20 0.21 0.08 0.09 0.12 0.11 0.12
0.00 0.00 0.00 0.00 0.00 0.00 0.00 0.00 0.00 0.00 0.00 0.00 0.00 0.00 0.00 0.00 0.00 0.00 0.00 0.00 0.00 0.00 0.00 0.00 0.00 0.00 0.00 0.00 0.00 0.00 0.00 0.00 0.00 0.00 0.00 0.00 0.00 0.00 0.01 0.09 0.14 0.07 0.06 0.15 0.13
0.00 0.00 0.00 0.00 0.00 0.00 0.00 0.00 0.00 0.00 0.00 0.00 0.00 0.00 0.00 0.00 0.00 0.00 0.00 0.00 0.00 0.00 0.00 0.00 0.00 0.00 0.00 0.00 0.00 0.00 0.00 0.00 0.00 0.00 0.00 0.00 0.00 0.00 0.00 0.01 0.04 0.01 0.00 0.04 0.15
0.00 0.00 0.00 0.00 0.00 0.00 0.00 0.00 0.00 0.00 0.00 0.00 0.00 0.00 0.00 0.00 0.00 0.00 0.00 0.00 0.00 0.00 0.00 0.00 0.00 0.00 0.00 0.00 0.00 0.00 0.00 0.00 0.00 0.00 0.00 0.00 0.00 0.00 0.00 0.00 0.00 0.00 0.00 0.00 0.03
0.00 0.00 0.00 0.00 0.00 0.00 0.00 0.00 0.00 0.00 0.00 0.00 0.00 0.00 0.00 0.00 0.00 0.00 0.00 0.00 0.00 0.00 0.00 0.00 0.00 0.00 0.00 0.00 0.00 0.00 0.00 0.00 0.00 0.00 0.00 0.00 0.00 0.00 0.00 0.00 0.00 0.00 0.00 0.00 0.00
0.00 0.00 0.00 0.00 0.00 0.00 0.00 0.00 0.00 0.00 0.00 0.00 0.00 0.00 0.00 0.00 0.00 0.00 0.00 0.00 0.00 0.00 0.00 0.00 0.00 0.00 0.00 0.00 0.00 0.00 0.00 0.00 0.00 0.00 0.00 0.00 0.00 0.00 0.00 0.00 0.00 0.00 0.00 0.00 0.00
0.00 0.00 0.00 0.00 0.00 0.00 0.00 0.00 0.00 0.00 0.00 0.00 0.00 0.00 0.00 0.00 0.00 0.00 0.00 0.00 0.00 0.00 0.00 0.00 0.00 0.00 0.00 0.00 0.00 0.00 0.00 0.00 0.00 0.00 0.00 0.00 0.00 0.00 0.00 0.00 0.00 0.00 0.00 0.00 0.00
0.00 0.00 0.00 0.00 0.00 0.00 0.00 0.00 0.00 0.00 0.00 0.00 0.00 0.00 0.00 0.00 0.00 0.00 0.00 0.00 0.00 0.00 0.00 0.00 0.00 0.00 0.00 0.00 0.00 0.00 0.00 0.00 0.00 0.00 0.00 0.00 0.00 0.00 0.00 0.00 0.00 0.00 0.00 0.00 0.00
0.00 0.00 0.00 0.00 0.00 0.00 0.00 0.00 0.00 0.00 0.00 0.00 0.00 0.00 0.00 0.00 0.00 0.00 0.00 0.00 0.00 0.00 0.00 0.00 0.00 0.00 0.00 0.00 0.00 0.00 0.00 0.00 0.00 0.00 0.00 0.00 0.00 0.00 0.00 0.00 0.00 0.00 0.00 0.00 0.00
0.00 0.00 0.00 0.00 0.00 0.00 0.00 0.00 0.00 0.00 0.00 0.00 0.00 0.00 0.00 0.00 0.00 0.00 0.00 0.00 0.00 0.00 0.00 0.00 0.00 0.00 0.00 0.00 0.00 0.00 0.00 0.00 0.00 0.00 0.00 0.00 0.00 0.00 0.00 0.00 0.00 0.00 0.00 0.00 0.00
0.00 0.00 0.00 0.00 0.00 0.00 0.00 0.00 0.00 0.00 0.00 0.00 0.00 0.00 0.00 0.00 0.00 0.00 0.00 0.00 0.00 0.00 0.00 0.00 0.00 0.00 0.00 0.00 0.00 0.00 0.00 0.00 0.00 0.00 0.00 0.00 0.00 0.00 0.00 0.00 0.00 0.00 0.00 0.00 0.00
0.00 0.00 0.00 0.00 0.00 0.00 0.00 0.00 0.00 0.00 0.00 0.00 0.00 0.00 0.00 0.00 0.00 0.00 0.00 0.00 0.00 0.00 0.00 0.00 0.00 0.00 0.00 0.00 0.00 0.00 0.00 0.00 0.00 0.00 0.00 0.00 0.00 0.00 0.00 0.00 0.00 0.00 0.00 0.00 0.00
0.00 0.00 0.00 0.00 0.00 0.00 0.00 0.00 0.00 0.00 0.00 0.00 0.00 0.00 0.00 0.00 0.00 0.00 0.00 0.00 0.00 0.00 0.00 0.00 0.00 0.00 0.00 0.00 0.00 0.00 0.00 0.00 0.00 0.00 0.00 0.00 0.00 0.00 0.00 0.00 0.00 0.00 0.00 0.00 0.00
0.00 0.00 0.00 0.00 0.00 0.00 0.00 0.00 0.00 0.00 0.00 0.00 0.00 0.00 0.00 0.00 0.00 0.00 0.00 0.00 0.00 0.00 0.00 0.00 0.00 0.00 0.00 0.00 0.00 0.00 0.00 0.00 0.00 0.00 0.00 0.00 0.00 0.00 0.00 0.00 0.00 0.00 0.00 0.00 0.00
0.00 0.00 0.00 0.00 0.00 0.00 0.00 0.00 0.00 0.00 0.00 0.00 0.00 0.00 0.00 0.00 0.00 0.00 0.00 0.00 0.00 0.00 0.00 0.00 0.00 0.00 0.00 0.00 0.00 0.00 0.00 0.00 0.00 0.00 0.00 0.00 0.00 0.00 0.00 0.00 0.00 0.00 0.00 0.00 0.00
0.00 0.00 0.00 0.00 0.00 0.00 0.00 0.00 0.00 0.00 0.00 0.00 0.00 0.00 0.00 0.00 0.00 0.00 0.00 0.00 0.00 0.00 0.00 0.00 0.00 0.00 0.00 0.00 0.00 0.00 0.00 0.00 0.00 0.00 0.00 0.00 0.00 0.00 0.00 0.00 0.00 0.00 0.00 0.00 0.00
0.00 0.00 0.00 0.00 0.00 0.00 0.00 0.00 0.00 0.00 0.00 0.00 0.00 0.00 0.00 0.00 0.00 0.00 0.00 0.00 0.00 0.00 0.00 0.00 0.00 0.00 0.00 0.00 0.00 0.00 0.00 0.00 0.00 0.00 0.00 0.00 0.00 0.00 0.00 0.00 0.00 0.00 0.00 0.00 0.00
0.00 0.00 0.00 0.00 0.00 0.00 0.00 0.00 0.00 0.00 0.00 0.00 0.00 0.00 0.00 0.00 0.00 0.00 0.00 0.00 0.00 0.00 0.00 0.00 0.00 0.00 0.00 0.00 0.00 0.00 0.00 0.00 0.00 0.00 0.00 0.00 0.00 0.00 0.00 0.00 0.00 0.00 0.00 0.00 0.00
MSLP
1020.76 1020.62 1020.45 1020.32 1020.06 1019.85 1019.56 1019.32 1019.17 1018.87 1018.65 1018.28 1017.84 1017.48 1017.10 1016.66 1015.93 1014.71 1014.94 1015.24 1014.82 1014.32 1013.94 1013.03 1012.21 1011.85 1011.80 1011.90 1011.96 1011.77 1011.63 1010.43 1009.62 1008.47 1007.03 1006.00 1005.76 1005.66 1005.33 1004.96 1005.75 1006.71 1007.37 1008.09 1010.23
1020.79 1020.62 1020.46 1020.31 1020.09 1019.87 1019.60 1019.39 1019.17 1018.89 1018.56 1018.23 1017.81 1017.34 1016.91 1016.65 1015.91 1014.71 1015.11 1014.82 1014.54 1014.21 1013.69 1013.09 1012.61 1012.32 1012.06 1011.61 1011.57 1011.77 1011.17 1010.37 1009.56 1008.43 1007.68 1007.14 1007.31 1007.06 1007.46 1006.09 1007.34 1008.08 1008.67 1009.77 1010.75
1020.84 1020.63 1020.44 1020.29 1020.04 1019.80 1019.68 1019.41 1019.16 1018.89 1018.55 1018.22 1017.73 1017.12 1016.60 1016.60 1015.62 1014.56 1014.64 1014.63 1014.39 1014.09 1013.53 1013.03 1012.61 1012.30 1012.08 1011.51 1011.28 1011.22 1010.94 1010.48 1009.33 1008.98 1008.72 1008.08 1008.20 1008.67 1009.65 1008.42 1007.53 1008.42 1009.62 1010.67 1011.50
1020.82 1020.65 1020.40 1020.24 1020.05 1019.89 1019.58 1019.35 1019.13 1018.86 1018.44 1018.13 1017.67 1016.92 1016.17 1015.96 1015.38 1014.47 1014.35 1014.35 1014.22 1013.84 1013.13 1012.75 1012.38 1012.32 1012.20 1011.55 1010.79 1010.85 1010.50 1010.06 1009.48 1009.65 1009.68 1009.35 1008.46 1009.25 1008.95 1009.33 1008.31 1008.51 1009.92 1010.94 1011.80
1020.82 1020.61 1020.42 1020.20 1020.01 1019.83 1019.52 1019.16 1018.93 1018.69 1018.37 1018.07 1017.66 1016.92 1016.31 1015.27 1014.84 1014.23 1014.15 1014.08 1013.89 1013.53 1013.12 1012.88 1012.61 1012.52 1012.38 1011.90 1011.05 1010.56 1010.31 1009.79 1009.11 1009.73 1009.79 1009.44 1008.88 1009.22 1010.15 1009.35 1008.22 1009.22 1010.60 1011.27 1011.92
1020.80 1020.56 1020.31 1020.14 1019.92 1019.73 1019.38 1019.02 1018.65 1018.44 1018.22 1017.99 1017.66 1017.09 1016.38 1015.15 1014.46 1014.10 1014.02 1013.83 1013.65 1013.65 1013.33 1012.96 1012.89 1012.88 1012.48 1011.82 1011.23 1010.80 1010.33 1009.63 1009.15 1009.21 1009.24 1009.12 1008.89 1009.15 1010.36 1010.76 1008.85 1009.46 1010.93 1011.76 1012.02
1020.93 1020.62 1020.37 1020.06 1019.76 1019.44 1019.13 1018.77 1018.44 1018.20 1018.06 1017.83 1017.59 1017.23 1016.21 1014.98 1014.32 1014.00 1013.61 1013.54 1013.39 1013.52 1013.38 1013.13 1013.06 1013.12 1012.76 1011.91 1011.24 1011.06 1010.76 1009.75 1009.09 1008.92 1008.82 1008.76 1008.61 1009.31 1010.17 1010.41 1008.50 1009.76 1011.18 1011.91 1012.15
1020.92 1020.66 1020.36 1020.03 1019.76 1019.35 1018.92 1018.44 1018.12 1017.85 1017.76 1017.54 1017.45 1017.06 1015.41 1014.26 1014.09 1013.88 1013.60 1013.32 1013.18 1012.98 1013.08 1013.02 1013.07 1013.11 1012.91 1012.19 1011.59 1011.10 1010.69 1009.77 1008.23 1008.52 1008.35 1008.65 1008.36 1007.71 1008.65 1010.87 1010.07 1010.18 1011.30 1012.11 1012.37
1020.90 1020.66 1020.31 1019.98 1019.63 1019.22 1018.62 1017.94 1017.57 1017.33 1017.40 1017.26 1017.21 1016.55 1014.75 1013.98 1014.00 1013.87 1013.78 1013.41 1013.11 1012.51 1012.46 1012.73 1012.87 1012.61 1012.41 1012.65 1012.61 1010.97 1011.47 1009.27 1007.95 1007.85 1008.02 1008.34 1008.16 1008.29 1008.61 1009.62 1010.16 1009.99 1011.27 1012.24 1012.46
1020.89 1020.68 1020.38 1020.00 1019.61 1019.00 1018.17 1017.45 1017.06 1017.00 1016.98 1016.54 1016.43 1016.41 1014.80 1014.44 1014.30 1013.94 1013.53 1013.34 1013.07 1012.56 1012.20 1012.67 1012.59 1012.36 1012.23 1012.40 1012.48 1011.54 1010.57 1009.16 1008.37 1008.47 1008.27 1008.49 1008.30 1008.42 1009.50 1009.03 1009.51 1010.31 1011.29 1011.84 1012.11
1020.90 1020.61 1020.38 1019.97 1019.43 1018.81 1017.96 1016.96 1017.51 1017.47 1016.47 1016.49 1016.31 1015.97 1015.12 1014.91 1014.16 1013.72 1013.49 1012.90 1012.68 1012.16 1012.49 1012.14 1012.79 1012.93 1012.83 1012.51 1012.14 1011.45 1010.60 1010.25 1009.15 1008.96 1008.87 1008.78 1008.46 1008.18 1008.32 1009.03 1009.71 1010.45 1010.76 1011.72 1012.28
1021.16 1020.73 1020.29 1019.89 1019.44 1018.68 1018.31 1018.49 1019.59 1019.80 1017.92 1016.29 1016.22 1015.88 1015.31 1015.40 1014.74 1013.73 1013.62 1013.47 1013.19 1012.92 1012.81 1012.52 1012.97 1013.24 1012.87 1012.17 1011.85 1011.34 1011.04 1010.64 1009.79 1009.37 1009.06 1008.65 1008.30 1008.00 1007.75 1007.63 1008.31 1010.11 1010.77 1011.01 1011.60
1021.16 1020.79 1020.31 1019.83 1019.37 1019.08 1019.14 1019.76 1019.81 1019.60 1018.65 1016.28 1015.73 1015.47 1015.37 1015.63 1014.91 1014.22 1014.22 1014.05 1013.72 1013.38 1013.48 1013.33 1013.50 1013.15 1012.66 1012.33 1012.25 1011.88 1011.95 1011.65 1011.18 1009.95 1009.17 1009.06 1008.55 1007.79 1007.38 1007.49 1008.11 1009.22 1009.98 1010.72 1010.78
1021.12 1020.81 1020.30 1019.64 1019.70 1019.48 1019.69 1019.86 1019.84 1019.61 1018.63 1016.55 1015.64 1015.39 1015.24 1015.23 1014.93 1014.44 1014.56 1014.88 1013.93 1013.87 1013.77 1013.58 1013.51 1013.50 1012.90 1012.87 1013.01 1012.21 1012.42 1012.19 1011.75 1011.11 1010.44 1009.50 1008.97 1007.55 1007.28 1007.37 1007.89 1008.62 1009.50 1010.15 1010.87
1021.17 1020.75 1020.37 1019.99 1020.25 1019.76 1020.42 1020.02 1019.81 1019.75 1018.30 1016.31 1015.44 1015.05 1014.87 1015.43 1014.90 1014.53 1014.67 1014.61 1014.54 1014.55 1014.58 1014.07 1013.88 1013.94 1013.56 1013.42 1013.33 1012.96 1012.61 1012.54 1012.37 1012.13 1011.42 1010.10 1010.07 1008.12 1007.33 1007.43 1007.51 1007.81 1008.43 1009.13 1010.09
1021.10 1020.77 1020.30 1019.94 1019.83 1020.42 1020.23 1020.20 1020.04 1019.50 1017.25 1016.01 1015.23 1015.11 1014.81 1014.70 1014.48 1014.32 1014.44 1014.69 1014.45 1014.58 1014.28 1014.01 1014.10 1014.25 1014.06 1013.55 1013.27 1013.02 1012.67 1012.10 1012.52 1012.73 1012.60 1011.55 1010.98 1009.32 1008.51 1008.18 1007.87 1007.90 1007.87 1008.37 1009.59
1021.32 1020.83 1020.35 1020.09 1020.18 1020.22 1020.29 1020.17 1019.85 1018.14 1016.44 1015.89 1015.37 1015.06 1014.96 1014.63 1014.41 1014.41 1014.34 1014.44 1015.02 1015.20 1014.84 1014.26 1014.11 1014.07 1014.21 1013.73 1013.23 1013.52 1013.24 1013.39 1013.74 1013.58 1013.17 1012.31 1011.62 1009.90 1008.87 1008.47 1008.55 1008.55 1008.68 1008.93 1009.31
1021.35 1020.99 1020.34 1020.15 1020.32 1020.13 1020.25 1019.98 1019.08 1017.14 1016.12 1015.82 1015.49 1015.06 1014.90 1014.81 1014.47 1014.40 1014.33 1014.58 1015.04 1015.50 1015.48 1015.28 1014.66 1014.40 1014.39 1014.53 1014.64 1014.39 1014.46 1015.01 1015.18 1014.76 1013.81 1012.29 1011.43 1009.69 1008.96 1008.89 1008.92 1009.04 1009.26 1009.47 1009.87
1021.24 1020.66 1020.19 1020.42 1020.24 1020.19 1020.25 1019.63 1017.98 1016.97 1016.40 1015.92 1015.21 1015.07 1014.55 1014.91 1015.08 1014.53 1014.08 1014.56 1015.33 1015.82 1016.31 1015.93 1015.26 1014.73 1014.64 1014.75 1015.05 1014.60 1014.86 1015.21 1015.45 1014.67 1014.04 1012.28 1010.62 1009.45 1009.21 1009.30 1009.24 1009.43 1009.61 1009.78 1010.11
1021.26 1020.59 1020.33 1020.37 1020.28 1020.12 1020.11 1018.96 1017.60 1017.07 1016.63 1016.24 1015.81 1015.35 1015.08 1014.91 1015.12 1014.83 1014.28 1014.69 1015.31 1015.95 1016.24 1016.32 1016.19 1015.01 1014.76 1014.92 1015.05 1015.13 1015.39 1015.40 1015.67 1015.50 1014.65 1013.06 1011.35 1010.13 1009.77 1009.57 1009.55 1009.70 1009.81 1009.90 1010.12
1021.37 1020.90 1020.71 1020.34 1020.26 1020.09 1019.72 1018.56 1017.62 1017.36 1016.98 1016.67 1016.19 1015.82 1015.40 1015.32 1015.32 1015.09 1014.76 1015.06 1015.23 1015.84 1016.35 1016.47 1016.60 1015.57 1014.94 1014.92 1014.84 1015.23 1015.17 1015.53 1015.92 1015.92 1015.39 1014.10 1011.92 1009.78 1009.62 1009.32 1009.33 1009.45 1009.65 1009.76 1009.99
1021.24 1021.22 1020.69 1020.54 1020.34 1019.52 1018.98 1018.22 1018.17 1017.49 1017.49 1016.99 1016.87 1016.49 1016.17 1016.01 1015.88 1015.49 1015.11 1015.16 1015.61 1016.07 1016.41 1016.83 1016.88 1016.39 1015.33 1014.92 1014.82 1015.07 1015.26 1015.62 1016.16 1016.06 1015.62 1014.91 1011.90 1009.51 1009.34 1009.11 1009.20 1009.15 1009.16 1009.13 1009.37
1021.08 1020.63 1020.41 1020.45 1019.92 1019.20 1018.45 1018.23 1018.01 1017.64 1017.64 1017.44 1016.96 1016.62 1016.62 1016.64 1016.59 1015.81 1015.70 1015.93 1016.21 1016.59 1016.84 1017.04 1017.17 1016.77 1015.65 1015.80 1015.45 1015.40 1015.11 1015.48 1016.09 1016.38 1015.86 1015.24 1011.98 1009.82 1009.31 1009.18 1009.25 1009.49 1009.47 1009.13 1009.05
1021.31 1020.39 1020.29 1020.14 1019.64 1019.37 1018.58 1018.00 1017.99 1017.72 1017.84 1017.76 1017.45 1017.20 1017.01 1016.84 1016.57 1016.41 1016.28 1016.17 1016.52 1016.92 1017.31 1017.66 1017.57 1017.43 1016.99 1016.40 1015.97 1015.57 1015.22 1015.62 1016.03 1016.09 1015.11 1013.62 1011.68 1010.82 1009.94 1009.62 1009.36 1009.28 1009.10 1009.01 1009.00
1021.04 1020.20 1020.26 1020.02 1019.50 1019.25 1018.75 1018.20 1018.05 1017.95 1018.01 1017.88 1017.65 1017.65 1017.44 1017.31 1016.92 1016.53 1016.42 1016.46 1016.56 1016.84 1017.41 1017.96 1017.86 1017.76 1017.00 1016.83 1016.20 1015.43 1014.84 1014.53 1015.12 1014.44 1014.74 1011.98 1012.05 1010.60 1010.07 1009.85 1009.42 1009.28 1009.20 1008.95 1008.76
1021.25 1020.93 1020.51 1019.99 1019.70 1019.50 1018.78 1018.30 1018.13 1017.77 1017.86 1017.85 1018.12 1017.84 1017.84 1017.76 1017.74 1017.38 1017.20 1017.10 1017.01 1017.37 1017.52 1017.60 1017.62 1017.65 1017.50 1016.72 1015.99 1014.60 1013.61 1013.16 1013.18 1012.91 1012.81 1011.90 1010.76 1009.92 1009.33 1009.24 1009.37 1009.44 1009.38 1009.32 1009.07
1021.40 1021.25 1020.82 1020.11 1019.95 1019.84 1018.98 1018.53 1018.42 1018.50 1018.02 1018.00 1018.36 1018.46 1018.17 1018.01 1017.96 1017.74 1017.52 1017.28 1017.07 1017.12 1017.01 1017.26 1017.41 1017.54 1017.03 1016.54 1015.94 1014.20 1011.79 1011.72 1011.70 1011.35 1011.07 1010.91 1009.80 1009.53 1009.23 1009.30 1009.29 1009.41 1009.53 1009.51 1009.26
Thickness
5646 5645 5644 5642 5641 5639 5638 5635 5632 5630 5627 5625 5623 5620 5616 5612 5610 5612 5596 5584 5581 5577 5574 5576 5577 5576 5574 5566 5568 5572 5562 5575 5593 5612 5645 5676 5677 5690 5709 5714 5713 5713 5715 5723 5709
5646 5645 5644 5642 5641 5638 5636 5634 5630 5628 5626 5624 5621 5619 5615 5610 5608 5608 5592 5585 5581 5576 5572 5566 5562 5564 5559 5564 5565 5558 5560 5576 5600 5620 5632 5651 5652 5665 5671 5698 5688 5696 5704 5702 5699
5646 5645 5644 5641 5640 5638 5635 5633 5629 5626 5623 5621 5619 5618 5616 5608 5606 5601 5592 5584 5579 5574 5572 5567 5564 5561 5554 5561 5562 5561 5556 5574 5593 5599 5607 5632 5640 5649 5642 5662 5682 5683 5685 5686 5684
5647 5645 5644 5642 5640 5637 5635 5632 5628 5625 5623 5620 5617 5617 5617 5611 5591 5602 5594 5585 5579 5575 5572 5566 5562 5554 5548 5554 5568 5555 5567 5575 5585 5589 5595 5608 5635 5638 5636 5648 5672 5686 5680 5677 5674
5647 5646 5645 5643 5641 5637 5635 5633 5630 5626 5623 5619 5615 5615 5614 5611 5600 5603 5595 5587 5580 5576 5568 5561 5555 5552 5544 5550 5560 5558 5564 5574 5586 5583 5590 5607 5623 5631 5628 5648 5672 5671 5666 5667 5668
5647 5646 5645 5643 5641 5638 5637 5634 5632 5628 5623 5619 5615 5612 5610 5602 5609 5604 5596 5590 5582 5573 5566 5562 5555 5553 5549 5553 5554 5560 5563 5572 5581 5586 5593 5600 5616 5623 5627 5633 5655 5660 5657 5657 5662
5645 5645 5644 5643 5642 5640 5639 5637 5634 5630 5625 5621 5615 5611 5608 5605 5611 5605 5602 5592 5585 5575 5564 5563 5559 5550 5549 5551 5562 5557 5551 5566 5576 5586 5591 5601 5610 5614 5619 5627 5640 5649 5644 5649 5655
5645 5645 5644 5642 5641 5641 5640 5640 5638 5634 5629 5624 5618 5614 5610 5619 5614 5607 5601 5595 5590 5583 5573 5567 5561 5553 5548 5555 5554 5552 5555 5552 5581 5583 5594 5596 5594 5632 5627 5619 5615 5637 5634 5638 5646
5644 5643 5643 5642 5641 5641 5642 5643 5642 5639 5632 5627 5623 5618 5611 5623 5610 5609 5601 5593 5589 5589 5581 5572 5564 5558 5557 5541 5528 5556 5523 5552 5579 5591 5593 5589 5596 5613 5629 5628 5620 5634 5630 5631 5640
5643 5642 5642 5642 5641 5642 5645 5647 5645 5641 5635 5632 5627 5613 5619 5612 5612 5609 5608 5598 5589 5588 5581 5569 5564 5558 5556 5548 5533 5544 5554 5569 5574 5579 5590 5586 5597 5614 5614 5623 5626 5627 5628 5631 5639
5641 5641 5640 5640 5641 5643 5646 5650 5643 5636 5638 5626 5621 5615 5619 5617 5621 5614 5608 5603 5597 5592 5572 5579 5554 5543 5550 5554 5556 5558 5563 5562 5572 5583 5582 5584 5595 5613 5613 5612 5612 5620 5627 5628 5629
5637 5638 5639 5639 5639 5642 5641 5635 5620 5613 5618 5631 5624 5620 5621 5615 5608 5612 5611 5595 5591 5578 5578 5572 5552 5557 5562 5565 5563 5564 5560 5558 5575 5581 5583 5587 5596 5610 5620 5625 5622 5614 5621 5628 5629
5634 5634 5636 5637 5638 5636 5630 5622 5617 5615 5614 5629 5629 5622 5619 5612 5607 5607 5605 5595 5590 5582 5574 5565 5563 5569 5568 5564 5559 5559 5551 5552 5557 5575 5585 5586 5589 5605 5622 5627 5624 5620 5623 5624 5629
5630 5631 5633 5636 5634 5630 5624 5619 5615 5613 5611 5625 5625 5622 5622 5616 5606 5611 5604 5591 5593 5582 5577 5575 5575 5567 5567 5562 5556 5559 5561 5560 5563 5561 5560 5591 5561 5602 5613 5620 5625 5617 5620 5620 5619
5625 5627 5629 5630 5625 5626 5617 5616 5614 5608 5595 5627 5623 5628 5622 5607 5609 5609 5606 5598 5587 5580 5578 5575 5570 5562 5564 5562 5561 5559 5563 5561 5563 5559 5562 5583 5563 5593 5613 5615 5618 5623 5625 5629 5624
5621 5622 5625 5625 5625 5616 5614 5612 5609 5603 5591 5616 5624 5616 5615 5613 5613 5612 5608 5600 5598 5586 5586 5582 5579 5570 5565 5568 5569 5569 5568 5573 5570 5561 5540 5570 5559 5566 5591 5604 5613 5619 5630 5632 5624
5614 5617 5617 5618 5618 5613 5610 5607 5601 5596 5626 5616 5613 5615 5608 5609 5607 5605 5597 5595 5577 5561 5567 5581 5581 5578 5571 5565 5574 5563 5556 5540 5534 5536 5541 5563 5551 5567 5595 5601 5605 5609 5613 5624 5624
5607 5609 5613 5612 5609 5609 5606 5605 5596 5618 5620 5615 5612 5609 5605 5602 5607 5602 5597 5587 5586 5576 5562 5554 5544 5570 5569 5561 5552 5552 5553 5523 5532 5532 5539 5566 5556 5573 5594 5595 5600 5605 5607 5609 5613
5600 5604 5607 5604 5603 5603 5600 5594 5597 5612 5611 5606 5610 5603 5608 5600 5592 5598 5598 5589 5580 5573 5556 5554 5559 5573 5569 5564 5556 5554 5542 5554 5543 5552 5546 5561 5581 5590 5587 5588 5590 5593 5598 5601 5603
5592 5598 5600 5597 5596 5595 5593 5594 5606 5604 5603 5602 5594 5602 5592 5596 5591 5586 5591 5589 5579 5573 5570 5563 5544 5571 5570 5564 5560 5552 5551 5537 5535 5534 5538 5550 5560 5546 5575 5579 5583 5582 5585 5592 5595
5583 5587 5587 5589 5589 5589 5584 5594 5599 5598 5596 5593 5594 5590 5593 5588 5587 5584 5587 5581 5580 5570 5566 5562 5554 5559 5568 5557 5557 5549 5545 5542 5542 5539 5532 5531 5545 5585 5578 5584 5583 5584 5585 5587 5587
5578 5575 5577 5578 5582 5587 5586 5594 5584 5590 5587 5585 5582 5582 5579 5578 5573 5573 5579 5578 5575 5568 5558 5554 5547 5537 5556 5561 5559 5555 5551 5544 5525 5533 5533 5528 5551 5590 5584 5583 5581 5580 5582 5584 5586
5573 5578 5572 5571 5572 5577 5585 5583 5580 5581 5578 5577 5578 5580 5574 5569 5557 5569 5572 5569 5566 5560 5551 5550 5540 5522 5550 5549 5550 5545 5551 5545 5539 5528 5520 5519 5539 5583 5580 5582 5580 5576 5574 5577 5580
5566 5569 5569 5566 5569 5566 5572 5578 5574 5571 5568 5569 5568 5567 5564 5562 5561 5558 5558 5562 5558 5553 5544 5538 5540 5537 5521 5536 5541 5536 5542 5537 5529 5509 5530 5540 5558 5563 5566 5567 5570 5570 5572 5575 5576
5561 5566 5559 5561 5563 5560 5563 5567 5564 5561 5559 5559 5559 5554 5554 5550 5551 5551 5553 5556 5551 5548 5541 5532 5527 5526 5536 5534 5537 5541 5542 5543 5523 5535 5520 5555 5546 5556 5560 5557 5563 5565 5564 5568 5571
5554 5552 5550 5553 5553 5550 5554 5558 5556 5558 5555 5551 5544 5546 5546 5540 5538 5536 5539 5539 5539 5529 5532 5530 5518 5524 5516 5535 5534 5544 5551 5548 5545 5546 5542 5547 5555 5564 5566 5568 5558 5555 5556 5556 5557
5539 5540 5541 5548 5544 5539 5545 5548 5545 5542 5548 5544 5535 5530 5533 5535 5530 5531 5531 5532 5531 5529 5531 5526 5512 5516 5520 5529 5523 5532 5561 5560 5557 5557 5554 5539 5557 5558 5557 5556 5555 5551 5547 5545 5548